[[{"header":{"parameterUnit":"m.s-1","parameterCategory":1,"la1":30.2992,"la2":30.254,"lo1":-89.0895,"lo2":-89.0443,"dy":0.0025,"dx":0.0025,"nx":19,"ny":19,"refTime":"2026-03-14T21:00:00:Z","depth":0,"parameterNumber":2,"parameterNumberName":"U-component_of_WINDS"},"data":[0,0,0,3.9054,3.9055,3.9109,3.9109,3.9188,3.9189,0,0,0,0,0,0,0,0,0,0,0,3.9044,3.9045,3.9053,3.9055,3.9109,3.9109,3.9188,3.9189,0,0,0,0,0,0,0,0,0,0,0,3.9044,3.9045,3.9046,3.9055,3.9109,3.9109,3.9188,3.9143,0,0,0,0,0,0,0,0,0,0,3.9089,3.9087,3.9044,3.9046,3.9056,3.9109,3.9109,3.9141,3.9146,3.9168,0,3.919,0,3.9191,3.9195,3.9195,0,0,0,3.905,3.9083,3.9092,3.9046,3.9056,3.9109,3.9083,3.9144,3.9149,3.9175,3.9191,3.9194,3.9192,3.9195,3.9196,3.9344,3.9345,0,0,3.9047,3.9057,3.9088,3.9096,3.9089,3.9081,3.9085,3.9147,3.9165,3.9191,3.9195,3.9194,3.9196,3.9197,3.9343,3.9344,0,0,0,3.9042,3.9055,3.9062,3.9093,3.9102,3.9083,3.9087,3.9162,3.9164,3.9196,3.9195,3.9197,3.9198,3.9342,3.9344,3.9401,0,0,0,3.904,3.9052,3.9061,3.9068,3.9101,3.9133,3.9101,3.9159,3.9166,3.9194,3.9197,3.9199,3.9341,3.9343,3.9397,3.9425,0,0,0,3.9038,3.9052,3.9062,3.9068,3.9092,3.9131,3.9136,3.916,3.9165,3.9195,3.9199,3.934,3.9343,3.9393,3.9419,3.9468,0,0,0,3.9039,3.911,3.9063,3.9142,3.9092,3.9167,3.9136,3.9191,3.9223,3.9197,3.9341,3.9344,3.9392,3.9416,3.9464,3.951,3.953,0,0,3.9134,3.9122,3.9168,3.9127,3.9214,3.9158,3.9252,3.9271,3.9264,3.9318,3.9321,3.9398,3.9419,3.9467,3.964,3.9657,0,0,0,3.9201,3.9234,3.9255,3.9287,3.9306,3.9323,3.9328,3.9335,3.9381,3.9294,3.9428,3.9441,3.9468,3.949,3.9503,3.9527,3.9354,3.9354,3.9354,3.9348,3.9338,3.9413,3.941,3.9442,3.9448,3.9473,3.9484,3.9461,3.9494,3.9509,3.9616,3.9641,3.9652,3.9676,3.9533,3.9533,3.9533,3.9534,3.9486,3.9531,3.9504,3.9567,3.9556,3.9609,3.9618,3.9601,3.9649,3.9603,3.9627,3.9577,3.967,3.969,3.9538,3.9537,3.9537,3.9536,3.9536,3.9581,3.9601,3.9611,3.9659,3.9697,3.9691,3.974,3.9727,3.9715,3.9739,3.9754,3.9753,3.9751,3.9748,3.9748,3.9748,3.9749,3.9749,3.9749,3.9674,3.9684,3.9726,3.9755,3.9775,3.9801,3.981,3.983,3.9848,3.9835,3.9835,3.9811,3.9681,3.9649,3.9755,3.9754,3.9753,3.9753,3.9752,3.9816,3.9783,3.9849,3.987,3.9903,3.9943,3.9928,3.997,3.9985,4.0009,3.9981,3.9887,3.9873,3.9862,3.9835,3.9983,3.9983,3.9983,3.9983,3.9896,3.9889,3.9954,3.9989,4.0022,4.0017,4.0092,4.0101,4.0104,4.0112,4.009,4.0053,4.0042,4.0034,4.002,3.9994,4.0179,4.0179,4.018,3.9983,3.9979,4.0045,4.005,4.0076,4.0098,4.0169,4.021,4.0207,4.0187,4.0119,4.0111,4.0051,4.0033,4.0009,3.9987,3.994,0,0]},{"header":{"parameterUnit":"m.s-1","parameterCategory":1,"la1":30.2992,"la2":30.254,"lo1":-89.0895,"lo2":-89.0443,"dy":0.0025,"dx":0.0025,"nx":19,"ny":19,"refTime":"2026-03-14T21:00:00:Z","depth":0,"parameterNumber":3,"parameterNumberName":"V-component_of_WINDS"},"data":[0,0,0,-9.9725,-9.9732,-10.0067,-10.0068,-10.0498,-10.0502,0,0,0,0,0,0,0,0,0,0,0,-9.9631,-9.9634,-9.9724,-9.9733,-10.0066,-10.0068,-10.0497,-10.0502,0,0,0,0,0,0,0,0,0,0,0,-9.9629,-9.9633,-9.9637,-9.9734,-10.0066,-10.0068,-10.0496,-10.0242,0,0,0,0,0,0,0,0,0,0,-9.9917,-9.9836,-9.9632,-9.9637,-9.9736,-10.0066,-10.0068,-10.023,-10.0258,-10.0349,0,-10.0434,0,-10.0476,-10.0531,-10.0533,0,0,0,-9.9727,-9.9813,-9.9899,-9.9638,-9.9739,-10.0065,-9.9914,-10.0246,-10.0278,-10.0386,-10.0441,-10.0456,-10.0483,-10.0534,-10.0536,-10.1088,-10.1091,0,0,-9.9709,-9.9693,-9.9877,-9.992,-9.9873,-9.9904,-9.9925,-10.0265,-10.0321,-10.0442,-10.0466,-10.049,-10.0537,-10.054,-10.1085,-10.1089,0,0,0,-9.9659,-9.968,-9.9758,-9.9902,-9.9963,-9.9914,-9.9938,-10.0306,-10.0333,-10.0471,-10.0495,-10.054,-10.0545,-10.1082,-10.1087,-10.1213,0,0,0,-9.9648,-9.9651,-9.975,-9.9743,-9.9957,-10.0139,-9.9972,-10.0309,-10.0348,-10.0493,-10.054,-10.0549,-10.1079,-10.1085,-10.1203,-10.1275,0,0,0,-9.9607,-9.9646,-9.9697,-9.9741,-9.9885,-10.0134,-10.0181,-10.0318,-10.0363,-10.0533,-10.055,-10.1077,-10.1084,-10.1194,-10.126,-10.1417,0,0,0,-9.9557,-9.9801,-9.9699,-9.998,-9.9883,-10.0211,-10.0178,-10.0423,-10.0583,-10.0542,-10.108,-10.1086,-10.1191,-10.1251,-10.1407,-10.1547,-10.1604,0,0,-9.9856,-9.9836,-10.0003,-9.9922,-10.0265,-10.0161,-10.0522,-10.0682,-10.071,-10.0959,-10.0973,-10.1206,-10.1259,-10.1415,-10.1926,-10.1971,0,0,0,-10.0092,-10.0212,-10.0307,-10.0462,-10.0593,-10.0711,-10.0818,-10.0878,-10.1091,-10.0837,-10.1305,-10.1337,-10.1429,-10.1497,-10.1535,-10.1616,-10.1117,-10.1116,-10.1115,-10.049,-10.0518,-10.0796,-10.0865,-10.1015,-10.1125,-10.1249,-10.1347,-10.1327,-10.1438,-10.1512,-10.1819,-10.1898,-10.1927,-10.201,-10.1587,-10.1588,-10.1588,-10.1588,-10.093,-10.1105,-10.1077,-10.1338,-10.1365,-10.1582,-10.1697,-10.1677,-10.1881,-10.1764,-10.1847,-10.1718,-10.1975,-10.205,-10.1598,-10.1596,-10.1595,-10.1594,-10.1594,-10.1194,-10.1283,-10.1355,-10.1584,-10.1756,-10.1815,-10.2015,-10.2031,-10.2046,-10.2128,-10.2209,-10.2207,-10.2207,-10.2165,-10.2166,-10.2168,-10.2168,-10.2169,-10.217,-10.144,-10.1517,-10.1686,-10.1849,-10.1951,-10.2088,-10.2203,-10.2303,-10.2418,-10.2413,-10.2414,-10.2384,-10.1996,-10.1898,-10.2187,-10.2184,-10.2181,-10.218,-10.2179,-10.1878,-10.1782,-10.2043,-10.2147,-10.234,-10.2511,-10.2529,-10.2733,-10.2818,-10.2916,-10.2869,-10.258,-10.2559,-10.2529,-10.2449,-10.2862,-10.2862,-10.2862,-10.2862,-10.2102,-10.2094,-10.2366,-10.2531,-10.2694,-10.2739,-10.3031,-10.3122,-10.32,-10.3254,-10.3197,-10.3091,-10.3059,-10.3058,-10.3016,-10.2942,-10.3471,-10.3472,-10.3472,-10.2373,-10.2383,-10.263,-10.271,-10.2862,-10.2992,-10.3268,-10.3456,-10.3524,-10.3497,-10.3297,-10.3271,-10.3101,-10.3044,-10.3012,-10.2947,-10.281,0,0]}]]